[[{"header":{"parameterUnit":"m.s-1","parameterCategory":1,"la1":30.2991,"la2":30.254,"lo1":-89.0895,"lo2":-89.0444,"dy":0.0017,"dx":0.0017,"nx":28,"ny":28,"refTime":"2023-10-02T21:00:00:Z","depth":0,"parameterNumber":2,"parameterNumberName":"U-component_of_WINDS"},"data":[0,0,0,0,0,0,0,0,0,0,0,0,0,0,0,0,0,0,0,0,0,0,0,0,0,0,0,0,0,0,0,0,0,0,0,0,0,0,0,0,0,0,0,0,0,0,0,0,0,0,0,0,0,0,0,0,0,0,-4.1014,-4.1015,0,-4.1132,-4.1133,-4.1134,-4.1106,-4.1104,-4.1102,-4.11,-4.122,-4.1225,-4.123,0,0,0,0,0,0,0,0,0,0,0,0,0,-4.0765,-4.077,-4.1014,-4.1015,-4.1017,-4.1131,-4.1133,-4.1135,-4.1107,-4.1104,-4.1101,-4.1099,-4.1218,-4.1224,-4.1231,0,0,0,0,0,0,0,0,0,0,0,0,0,-4.0877,-4.0772,-4.1014,-4.1017,-4.1018,-4.1131,-4.1133,-4.1135,-4.1107,-4.1104,-4.1101,-4.1098,-4.1216,-4.1224,-4.1232,-4.1348,0,0,-4.1256,-4.1259,0,0,0,0,0,0,0,0,-4.0871,-4.0886,-4.1015,-4.1017,-4.1019,-4.1101,-4.1089,-4.1206,-4.1108,-4.1074,-4.11,-4.1096,-4.1183,-4.1193,-4.1223,-4.1354,-4.1359,-4.1257,-4.1261,-4.1265,-4.1267,0,0,0,0,0,0,0,-4.0863,-4.0881,-4.106,-4.1017,-4.1019,-4.1012,-4.1025,-4.1111,-4.1146,-4.1076,-4.1075,-4.1089,-4.1183,-4.1215,-4.1226,-4.1361,-4.1256,-4.1263,-4.1268,-4.1271,-4.1595,-4.1599,0,0,0,0,0,0,-4.0854,-4.0875,-4.1057,-4.1064,-4.0935,-4.102,-4.1033,-4.1078,-4.1145,-4.1152,-4.1092,-4.1087,-4.1203,-4.1216,-4.123,-4.1372,-4.1265,-4.1272,-4.1277,-4.1591,-4.1596,-4.16,0,0,0,0,0,0,-4.0849,-4.087,-4.1052,-4.0969,-4.0992,-4.1028,-4.1078,-4.1082,-4.1114,-4.1156,-4.1162,-4.1118,-4.1201,-4.1218,-4.1319,-4.1376,-4.1276,-4.1283,-4.1587,-4.1593,-4.1598,-4.1656,0,0,0,0,0,0,-4.0842,-4.0869,-4.0913,-4.097,-4.0996,-4.114,-4.1081,-4.1087,-4.1128,-4.1123,-4.1183,-4.1189,-4.12,-4.1308,-4.1327,-4.1385,-4.1289,-4.1582,-4.1589,-4.1596,-4.165,-4.1663,-4.1675,0,0,0,0,0,-4.0833,-4.0925,-4.0916,-4.0938,-4.1053,-4.1143,-4.1158,-4.1168,-4.1132,-4.1178,-4.1205,-4.1187,-4.1366,-4.1318,-4.134,-4.1401,-4.1578,-4.1587,-4.1596,-4.1644,-4.1661,-4.1675,0,0,0,0,0,0,-4.0873,-4.0932,-4.0923,-4.1036,-4.1085,-4.1138,-4.1195,-4.1185,-4.1245,-4.1238,-4.1249,-4.1262,-4.1366,-4.1393,-4.1339,-4.1518,-4.1467,-4.148,-4.1496,-4.1513,-4.1525,-4.1517,-4.1296,0,0,0,0,0,-4.0895,-4.0963,-4.1011,-4.1106,-4.1131,-4.1159,-4.1199,-4.1203,-4.1254,-4.1274,-4.1309,-4.1359,-4.1427,-4.1471,-4.1535,-4.1653,-4.1666,-4.1706,-4.1719,-4.1729,-4.1741,-4.1806,-4.1825,-4.1628,-4.1628,-4.1628,0,0,-4.094,-4.0981,-4.1024,-4.1115,-4.1154,-4.1225,-4.1177,-4.1254,-4.1307,-4.1286,-4.1384,-4.1411,-4.1468,-4.1578,-4.1628,-4.1604,-4.1798,-4.174,-4.1748,-4.1754,-4.1817,-4.1836,-4.1852,-4.1634,-4.1633,-4.1632,0,0,-4.1061,-4.1098,-4.1182,-4.1222,-4.1281,-4.1299,-4.1319,-4.1375,-4.1393,-4.1491,-4.1478,-4.154,-4.1656,-4.1698,-4.1734,-4.1871,-4.1858,-4.1892,-4.1959,-4.2023,-4.2039,-4.2052,-4.2103,-4.212,-4.1903,-4.1904,-4.1904,0,-4.111,-4.1217,-4.1226,-4.1305,-4.1346,-4.1331,-4.1417,-4.1455,-4.1532,-4.156,-4.1532,-4.1678,-4.1715,-4.1836,-4.1869,-4.1899,-4.1923,-4.1885,-4.2036,-4.205,-4.2063,-4.2111,-4.2129,-4.1907,-4.1907,-4.1907,-4.1906,0,-4.1276,-4.135,-4.1411,-4.1486,-4.1534,-4.1615,-4.1638,-4.1685,-4.1685,-4.1706,-4.1807,-4.1851,-4.1925,-4.1954,-4.1954,-4.2075,-4.2058,-4.2033,-4.1982,-4.2085,-4.213,-4.2149,-4.1913,-4.1912,-4.191,-4.1909,0,0,-4.1424,-4.1505,-4.1527,-4.1562,-4.1626,-4.1684,-4.1765,-4.1838,-4.1878,-4.1932,-4.2001,-4.21,-4.2077,-4.2119,-4.2124,-4.218,-4.2287,-4.2147,-4.2149,-4.2173,-4.2424,-4.2444,-4.2465,-4.2278,-4.2282,-4.2285,-4.242,0,-4.1551,-4.1695,-4.1706,-4.1836,-4.1905,-4.1892,-4.1963,-4.2011,-4.2033,-4.2095,-4.212,-4.219,-4.2154,-4.2179,-4.2234,-4.2262,-4.2338,-4.2253,-4.2343,-4.2346,-4.233,-4.2488,-4.2509,-4.2634,-4.2438,-4.2441,-4.2443,0,-4.1718,-4.1778,-4.1915,-4.1971,-4.2,-4.2064,-4.2132,-4.2191,-4.2245,-4.2258,-4.2304,-4.2302,-4.2386,-4.2332,-4.2449,-4.2391,-4.2428,-4.2448,-4.2453,-4.2462,-4.2401,-4.2503,-4.2674,-4.2694,-4.2471,-4.2468,-4.2466,0,-4.1814,-4.1929,-4.2026,-4.2056,-4.2123,-4.2169,-4.2199,-4.2249,-4.2293,-4.2352,-4.238,-4.2449,-4.2486,-4.2539,-4.2556,-4.2515,-4.2672,-4.2619,-4.2686,-4.2685,-4.272,-4.2718,-4.2901,-4.2743,-4.2743,-4.2742,-4.2742,0,-4.1956,-4.204,-4.207,-4.213,-4.2224,-4.2237,-4.233,-4.2357,-4.2403,-4.2468,-4.2461,-4.2522,-4.254,-4.2604,-4.2618,-4.2713,-4.273,-4.2742,-4.2745,-4.2744,-4.2742,-4.2769,-4.2761,-4.2747,-4.2746,-4.2745,-4.2744,0,-4.2079,-4.2103,-4.2208,-4.2263,-4.2279,-4.2347,-4.2394,-4.2452,-4.2473,-4.2556,-4.2576,-4.261,-4.2686,-4.2707,-4.2798,-4.2807,-4.2919,-4.2913,-4.2901,-4.2902,-4.2967,-4.2961,-4.3175,-4.3204,-4.3026,-4.3028,-4.3029,0,-4.2168,-4.2233,-4.2296,-4.2339,-4.2372,-4.2441,-4.2486,-4.2501,-4.2547,-4.2614,-4.2664,-4.2739,-4.28,-4.2922,-4.2954,-4.3024,-4.302,-4.3091,-4.3031,-4.3028,-4.3023,-4.3019,-4.3026,-4.3102,-4.3104,-4.3105,-4.3107,0,-4.2324,-4.2333,-4.2397,-4.2466,-4.252,-4.2575,-4.2628,-4.2664,-4.2686,-4.2739,-4.2817,-4.2864,-4.2957,-4.3032,-4.3103,-4.3134,-4.3125,-4.3125,-4.3144,-4.3144,-4.3135,-4.3142,-4.2933,-4.312,-4.3119,-4.3118,-4.3117,-4.3117,-4.2434,-4.2491,-4.2545,-4.2617,-4.2659,-4.2709,-4.2766,-4.2795,-4.286,-4.2938,-4.2942,-4.3027,-4.308,-4.3174,-4.3209,-4.3276,-4.3255,-4.3283,-4.329,-4.3297,-4.3303,-4.3124,-4.3289,-4.3288,-4.3288,-4.3288,-4.3287,0,-4.259,-4.2624,-4.2691,-4.2765,-4.2823,-4.2809,-4.2867,-4.2916,-4.2991,-4.3041,-4.3101,-4.3191,-4.3264,-4.3303,-4.3375,-4.3421,-4.3419,-4.344,-4.3437,-4.3445,-4.3317,-4.3293,-4.3441,-4.3441,-4.3441,-4.344,-4.344,-4.344,-4.2678,-4.2775,-4.2791,-4.2908,-4.2942,-4.3025,-4.306,-4.3106,-4.3146,-4.3247,-4.3308,-4.3332,-4.3379,-4.3455,-4.3521,-4.3531,-4.3558,-4.3582,-4.3589,-4.3469,-4.3453,-4.3438,-4.3417,-4.3587,-4.3588,-4.3711,-4.3713,-4.3713]},{"header":{"parameterUnit":"m.s-1","parameterCategory":1,"la1":30.2991,"la2":30.254,"lo1":-89.0895,"lo2":-89.0444,"dy":0.0017,"dx":0.0017,"nx":28,"ny":28,"refTime":"2023-10-02T21:00:00:Z","depth":0,"parameterNumber":3,"parameterNumberName":"V-component_of_WINDS"},"data":[0,0,0,0,0,0,0,0,0,0,0,0,0,0,0,0,0,0,0,0,0,0,0,0,0,0,0,0,0,0,0,0,0,0,0,0,0,0,0,0,0,0,0,0,0,0,0,0,0,0,0,0,0,0,0,0,0,0,-0.3177,-0.3176,0,-0.3113,-0.3112,-0.3111,-0.3076,-0.3076,-0.3076,-0.3076,-0.301,-0.3009,-0.3007,0,0,0,0,0,0,0,0,0,0,0,0,0,-0.3266,-0.3265,-0.3177,-0.3176,-0.3175,-0.3113,-0.3112,-0.3111,-0.3076,-0.3076,-0.3076,-0.3076,-0.3011,-0.3009,-0.3007,0,0,0,0,0,0,0,0,0,0,0,0,0,-0.3217,-0.3264,-0.3177,-0.315,-0.3147,-0.3113,-0.3112,-0.3111,-0.3076,-0.3076,-0.3076,-0.3076,-0.3011,-0.3009,-0.3006,-0.2994,0,0,-0.2999,-0.2998,0,0,0,0,0,0,0,0,-0.322,-0.3214,-0.3155,-0.3152,-0.3148,-0.3102,-0.3119,-0.3072,-0.3076,-0.3103,-0.3076,-0.3076,-0.3041,-0.3036,-0.3024,-0.2991,-0.2988,-0.2999,-0.2997,-0.2996,-0.2995,0,0,0,0,0,0,0,-0.3224,-0.3217,-0.3151,-0.3154,-0.315,-0.3141,-0.3134,-0.311,-0.3074,-0.3101,-0.3098,-0.3091,-0.3039,-0.3027,-0.3022,-0.2987,-0.2999,-0.2996,-0.2995,-0.2994,-0.2937,-0.2937,0,0,0,0,0,0,-0.3232,-0.322,-0.3153,-0.3149,-0.3185,-0.3139,-0.3131,-0.3117,-0.3074,-0.3067,-0.3091,-0.309,-0.3031,-0.3025,-0.302,-0.3,-0.2996,-0.2994,-0.2992,-0.2937,-0.2937,-0.2937,0,0,0,0,0,0,-0.3234,-0.3226,-0.3156,-0.3184,-0.3174,-0.3138,-0.3122,-0.3116,-0.3104,-0.3066,-0.306,-0.3085,-0.3031,-0.3024,-0.3,-0.2998,-0.2993,-0.299,-0.2937,-0.2937,-0.2937,-0.2963,0,0,0,0,0,0,-0.3236,-0.3227,-0.3223,-0.3184,-0.3173,-0.3138,-0.3122,-0.3115,-0.3099,-0.3097,-0.3059,-0.3053,-0.303,-0.3004,-0.2997,-0.2994,-0.2988,-0.2937,-0.2937,-0.2937,-0.2962,-0.2963,-0.2965,0,0,0,0,0,-0.324,-0.3233,-0.3223,-0.3215,-0.3167,-0.3138,-0.3131,-0.3105,-0.31,-0.3094,-0.307,-0.3054,-0.2999,-0.3002,-0.2994,-0.299,-0.2937,-0.2937,-0.2937,-0.2961,-0.2963,-0.2965,0,0,0,0,0,0,-0.3273,-0.3228,-0.3215,-0.3196,-0.3171,-0.3132,-0.3125,-0.3109,-0.3085,-0.3083,-0.3052,-0.3043,-0.3022,-0.3004,-0.3008,-0.2974,-0.2966,-0.2965,-0.2987,-0.2989,-0.299,-0.2995,-0.2986,0,0,0,0,0,-0.3278,-0.3259,-0.322,-0.3207,-0.3194,-0.3162,-0.3148,-0.313,-0.3103,-0.3092,-0.3066,-0.304,-0.3016,-0.3001,-0.2978,-0.2959,-0.2949,-0.2952,-0.2954,-0.2955,-0.2954,-0.294,-0.294,-0.2936,-0.2936,-0.2936,0,0,-0.3288,-0.3261,-0.3251,-0.3212,-0.3191,-0.3171,-0.3153,-0.3133,-0.3117,-0.3089,-0.3065,-0.3044,-0.3013,-0.2991,-0.298,-0.2975,-0.2953,-0.2955,-0.2956,-0.2954,-0.294,-0.294,-0.2941,-0.2936,-0.2936,-0.2936,0,0,-0.3297,-0.3275,-0.326,-0.3238,-0.3205,-0.3183,-0.3179,-0.3142,-0.3127,-0.3102,-0.308,-0.306,-0.3021,-0.2999,-0.2982,-0.2979,-0.2963,-0.2972,-0.298,-0.2967,-0.2967,-0.2967,-0.2964,-0.2964,-0.2971,-0.2971,-0.2971,0,-0.3314,-0.3283,-0.3255,-0.3235,-0.3218,-0.319,-0.3174,-0.3154,-0.3115,-0.3104,-0.3099,-0.3047,-0.3024,-0.2995,-0.2994,-0.2982,-0.2976,-0.2976,-0.2969,-0.2969,-0.2969,-0.2966,-0.2965,-0.2972,-0.2972,-0.2972,-0.2972,0,-0.3304,-0.3283,-0.3275,-0.3237,-0.3219,-0.3202,-0.317,-0.3154,-0.3137,-0.3115,-0.3089,-0.306,-0.3029,-0.302,-0.3004,-0.2988,-0.2986,-0.2976,-0.2967,-0.2971,-0.2967,-0.2966,-0.2974,-0.2974,-0.2973,-0.2973,0,0,-0.3334,-0.3278,-0.3276,-0.3257,-0.3217,-0.32,-0.318,-0.3149,-0.3136,-0.311,-0.3091,-0.3057,-0.3047,-0.3028,-0.3008,-0.2997,-0.2993,-0.2987,-0.2986,-0.2988,-0.2972,-0.298,-0.2979,-0.2982,-0.2982,-0.2982,-0.2974,0,-0.3335,-0.3299,-0.3271,-0.3245,-0.3223,-0.3195,-0.3178,-0.3151,-0.3129,-0.3107,-0.3083,-0.3059,-0.3047,-0.3035,-0.3023,-0.2997,-0.299,-0.2997,-0.2964,-0.2963,-0.2972,-0.2977,-0.2986,-0.298,-0.2973,-0.2973,-0.2973,0,-0.3333,-0.3306,-0.3277,-0.3237,-0.3227,-0.3212,-0.318,-0.316,-0.3128,-0.3113,-0.3091,-0.307,-0.3046,-0.3039,-0.3005,-0.3011,-0.2995,-0.298,-0.2979,-0.2975,-0.2968,-0.2972,-0.2978,-0.2977,-0.297,-0.2971,-0.2971,0,-0.3355,-0.3312,-0.3289,-0.3274,-0.3227,-0.3216,-0.3196,-0.3164,-0.3147,-0.3118,-0.3106,-0.3076,-0.3059,-0.3036,-0.3007,-0.3005,-0.2975,-0.2966,-0.296,-0.2961,-0.2956,-0.2956,-0.2958,-0.2947,-0.2947,-0.2947,-0.2947,0,-0.336,-0.3343,-0.3298,-0.3283,-0.3263,-0.323,-0.3211,-0.3188,-0.3159,-0.3139,-0.3113,-0.3094,-0.3057,-0.3034,-0.3011,-0.2985,-0.2978,-0.2964,-0.2958,-0.2966,-0.2968,-0.2955,-0.2955,-0.2947,-0.2947,-0.2947,-0.2947,0,-0.3382,-0.3351,-0.3323,-0.328,-0.3269,-0.3255,-0.3218,-0.3202,-0.3178,-0.3153,-0.3145,-0.3107,-0.3077,-0.3046,-0.3006,-0.2991,-0.2965,-0.2958,-0.2976,-0.2973,-0.2968,-0.2969,-0.2962,-0.2958,-0.2951,-0.2951,-0.2951,0,-0.3387,-0.3373,-0.3328,-0.3312,-0.3292,-0.3268,-0.3249,-0.3216,-0.3197,-0.3158,-0.3146,-0.3115,-0.3088,-0.3042,-0.3011,-0.2979,-0.297,-0.2969,-0.2965,-0.2973,-0.2968,-0.2969,-0.2966,-0.2971,-0.2971,-0.2971,-0.2972,0,-0.3398,-0.3383,-0.3357,-0.3324,-0.3303,-0.3276,-0.3248,-0.3237,-0.3198,-0.3178,-0.3147,-0.3126,-0.3084,-0.3053,-0.3017,-0.2995,-0.2976,-0.2973,-0.297,-0.2978,-0.2988,-0.2981,-0.2979,-0.2973,-0.2973,-0.2973,-0.2973,-0.2973,-0.341,-0.3396,-0.3361,-0.3332,-0.3307,-0.3281,-0.3263,-0.3236,-0.321,-0.3173,-0.3155,-0.3124,-0.309,-0.304,-0.3018,-0.2993,-0.2987,-0.2983,-0.2982,-0.2981,-0.2982,-0.2993,-0.2986,-0.2986,-0.2986,-0.2986,-0.2986,0,-0.3419,-0.3395,-0.3369,-0.333,-0.3306,-0.329,-0.3257,-0.3239,-0.3212,-0.3181,-0.3155,-0.3118,-0.3086,-0.3051,-0.3017,-0.3003,-0.2994,-0.2996,-0.2996,-0.2991,-0.299,-0.2995,-0.3004,-0.3004,-0.3004,-0.3004,-0.3004,-0.3004,-0.3421,-0.3394,-0.3375,-0.3335,-0.331,-0.3279,-0.3262,-0.3237,-0.3212,-0.3172,-0.3145,-0.3123,-0.309,-0.3053,-0.3022,-0.3013,-0.3001,-0.3005,-0.2993,-0.2993,-0.2991,-0.299,-0.2995,-0.3003,-0.3003,-0.2996,-0.2996,-0.2996]}]]